Location: Kniewo
(53.4167°N, 14.7000°E)
Time: 11:11:16
(UTC+00:00)

Daily predictions for brighter satellites

Satellite Brightness Start Highest point End
(mag) Time Altitude Azimuth Time Altitude Azimuth Time Altitude Azimuth
Sich 1 3.1 15:24:29 10° N 15:28:50 57° ENE 15:33:07 10° SSE
Cosmos 1869 4.3 15:25:41 10° SSW 15:29:40 49° WNW 15:33:42 10° N
SMAP 3.5 15:25:22 10° SE 15:29:40 38° ENE 15:34:00 10° N
SL-8 Rocket 4.3 15:28:48 10° N 15:34:50 47° ENE 15:40:51 10° SE
YAOGAN 1 4.5 15:34:10 10° ENE 15:35:14 11° NE 15:36:18 10° NE
CZ-4C R/B 3.9 15:32:27 10° NNE 15:35:47 32° E 15:39:03 10° SSE
Cosmos 2341 Rocket 4.1 15:29:59 10° N 15:36:13 59° ENE 15:42:28 10° SSE
Cosmos 1151 Rocket 4.2 15:33:51 10° SE 15:37:10 22° E 15:40:29 10° NE
Cosmos 2278 Rocket 4.3 15:32:34 10° NW 15:37:35 33° WSW 15:42:35 10° S
Radarsat Rocket 4.2 15:34:20 10° SSE 15:40:36 73° ENE 15:47:45 10° NNW
CZ-2C R/B 4.3 15:40:19 10° E 15:43:18 16° NE 15:46:15 10° NNE
CZ-4B DEB 4.2 15:37:59 10° SSE 15:43:28 85° ENE 15:48:58 10° NNW
Cosmos 2360 Rocket 3.8 15:40:07 10° W 15:44:43 25° NW 15:49:20 10° NNE
USA 281 4.0 15:39:40 10° E 15:45:15 31° NE 15:50:50 10° NNW
Cosmos 2333 Rocket 3.3 15:40:09 10° WSW 15:45:29 40° NW 15:50:51 10° NNE
Cosmos 2285 Rocket 4.0 15:40:00 10° NNW 15:46:27 75° ENE 15:52:48 10° SSE
SL-16 R/B 4.3 15:41:44 10° N 15:46:51 27° NW 15:51:58 10° WSW
COSMO-SKYMED 1 4.4 15:45:53 11° ENE 15:47:08 12° E 15:48:45 10° ESE
Cosmos 2219 Rocket 3.2 15:42:28 10° WSW 15:47:48 41° NW 15:53:08 10° NNE
USA 81 4.4 15:43:37 10° N 15:48:40 43° ENE 15:53:41 10° SSE
TELKOM 3 4.4 15:47:14 10° WSW 15:49:59 36° S 15:52:21 10° ESE
COSMOS 2428 3.7 15:47:13 10° WSW 15:52:41 44° NW 15:58:10 10° NNE
USA 267 3.4 15:47:28 10° E 15:53:57 68° N 16:00:27 10° WNW
CORIOLIS 4.2 15:48:45 10° SE 15:54:02 57° ENE 15:59:23 10° N
PAYLOAD B 4.3 15:50:53 10° SSE 15:56:28 89° E 16:02:04 10° NNW
Cosmos 1805 Rocket 4.2 15:52:52 10° NNW 15:57:18 62° W 16:01:40 10° S
NOSS 0 Rocket 4.2 15:51:44 10° SW 15:57:58 70° NW 16:04:13 10° NNE
H-2A R/B 3.4 15:55:28 10° E 15:58:42 17° NE 16:01:53 10° NNE
Cosmos 1356 3.9 15:55:31 10° NNW 15:58:56 64° W 16:02:20 10° S
Helios 1A Rocket 4.4 15:57:11 11° E 15:59:22 16° NE 16:01:53 10° NNE
Cosmos 1980 Rocket 4.2 15:57:30 10° NNW 16:00:02 13° N 16:02:35 10° NNE
Cosmos 44 Rocket 3.8 15:55:44 10° NW 16:00:39 44° NNE 16:05:38 10° ESE
Meteor 1-20 Rocket 4.3 15:54:50 10° N 16:00:44 71° ENE 16:06:32 10° SSE
Meteor 1-4 Rocket 3.8 15:58:50 10° SE 16:01:36 21° E 16:03:14 16° NE
Cosmos 1933 Rocket 4.3 15:59:26 10° N 16:03:28 32° ENE 16:07:28 10° SE
Cosmos 1666 Rocket 3.5 16:00:16 10° N 16:04:43 82° E 16:09:10 10° SSE
Cosmos 1328 Rocket 4.1 16:00:49 10° SSE 16:04:45 35° E 16:08:43 10° NNE
Cosmos 2181 Rocket 4.2 15:58:54 10° SSE 16:05:02 51° E 16:11:07 10° NNE
Cosmos 1939 Rocket 3.6 16:01:58 10° SE 16:05:22 29° ENE 16:08:48 10° N
Cosmos 389 Rocket 2.3 16:04:12 10° SSW 16:07:37 88° E 16:11:04 10° NNE
CZ-4 R/B 2.8 16:05:25 12° E 16:07:40 19° ENE 16:10:33 10° NNE
Cosmos 2237 Rocket 2.5 16:02:12 10° SW 16:07:48 68° NW 16:13:28 10° NNE
Cosmos 1602 4.0 16:04:24 10° N 16:08:12 44° ENE 16:11:56 10° SSE
NOAA 11 4.2 16:04:27 10° SE 16:09:46 58° ENE 16:15:08 10° N
CZ-4B R/B 3.1 16:05:37 10° SSE 16:10:55 85° ENE 16:16:16 10° NNW
SL-16 R/B 4.2 16:08:08 10° NW 16:11:29 16° NNW 16:14:51 10° NNE
H-2A R/B 3.0 16:09:38 10° S 16:13:48 63° WSW 16:17:50 10° NNW
Cosmos 2369 Rocket 2.2 16:08:23 10° NNW 16:14:06 69° NE 16:19:45 10° SE
ADEOS Rocket 3.7 16:07:24 10° NNE 16:15:12 87° WNW 16:22:57 10° SSW
Cosmos 1943 Rocket 2.3 16:10:06 10° NNW 16:15:41 82° WSW 16:21:16 10° SSE
Meteor 1-14 Rocket 4.4 16:10:08 10° N 16:16:00 54° ENE 16:21:51 10° SSE
H-2A R/B 2.0 16:15:35 10° NNE 16:19:47 67° ESE 16:24:03 10° S
NOAA 12 4.2 16:15:15 10° SSE 16:20:36 87° WSW 16:25:57 10° NNW
CENTAUR R/B 4.3 16:20:06 10° ESE 16:20:31 10° ESE 16:20:31 10° ESE
CZ-2D R/B 4.0 16:19:23 10° SE 16:22:47 30° ENE 16:26:11 10° N
Cosmos 2056 Rocket 4.4 16:22:22 10° NNW 16:26:53 28° NE 16:29:05 21° E
CRYOSAT 2 4.5 16:22:23 10° N 16:27:18 81° W 16:32:12 10° S
Okean O Rocket 1.7 16:22:59 10° SSE 16:27:21 80° WSW 16:31:48 10° NNW
Cosmos 1980 4.4 16:22:21 10° SW 16:27:53 51° NW 16:33:26 10° NNE
ARGOS 4.3 16:27:01 21° ENE 16:28:14 22° NE 16:32:18 10° N
Cosmos 1782 3.2 16:24:48 10° SSE 16:28:32 40° E 16:31:07 18° NNE
Cosmos 1633 Rocket 3.3 16:24:33 10° NNW 16:28:56 72° W 16:33:16 10° S
Okean-O 3.4 16:25:08 10° ESE 16:29:00 30° ENE 16:32:53 10° N
ISS -3.5 16:27:57 10° W 16:31:19 65° S 16:32:58 27° ESE
Cosmos 1933 3.3 16:30:08 10° S 16:34:11 90° W 16:38:18 10° N
Cosmos 2218 Rocket 4.0 16:29:06 10° NNW 16:35:17 87° WSW 16:41:27 10° S
SKYMED 2 4.4 16:34:31 26° ENE 16:35:46 30° E 16:39:36 10° SSE
Cosmos 2366 rocket 4.0 16:30:01 10° N 16:36:15 88° W 16:42:25 10° S
ERS-2 2.8 16:36:10 31° ENE 16:36:52 34° E 16:40:13 10° SSE
Cosmos 1869 Rocket 4.3 16:34:10 10° N 16:38:12 31° ENE 16:40:22 21° ESE
Cosmos 1867 3.7 16:35:40 10° SW 16:41:07 73° NW 16:44:54 21° NE
Cosmos 371 Rocket 3.8 16:43:21 10° NNW 16:47:56 37° NE 16:49:18 31° E
Lacrosse 5 rocket 0.9 16:45:41 10° WSW 16:49:19 80° SSE 16:50:15 47° ENE
Cosmos 773 Rocket 3.9 16:45:27 10° SSW 16:50:44 83° ESE 16:54:45 18° NNE
NOSS 3-2 (A) 4.3 16:48:42 10° SSE 16:53:22 26° ESE 16:54:01 26° ESE
Cosmos 2322 Rocket 4.3 16:52:07 10° NW 16:54:57 14° N 16:57:38 10° NNE
Cosmos 1606 4.5 16:52:33 10° SW 16:56:05 32° WNW 16:59:37 10° N
CZ-4B R/B 1.0 16:56:26 66° E 16:56:28 67° ESE 16:59:36 10° S
Cosmos 2239 Rocket 4.5 16:51:11 10° N 16:57:15 55° ENE 17:03:19 10° SSE
Feng Yun 1-1 Rocket 4.3 16:52:12 10° SSE 16:57:56 87° WSW 17:03:33 10° NNW
SL-16 R/B 2.4 16:55:17 10° SW 17:00:55 70° NW 17:05:04 19° NNE
USA 215 4.2 16:59:21 25° ESE 17:01:03 28° SE 17:06:31 10° S
BREEZE-M DEB (TANK) 3.9 17:02:27 10° SW 17:03:26 18° SSW 17:03:26 18° SSW
Cosmos 1500 3.0 17:00:45 10° N 17:04:36 79° E 17:08:25 10° SSE
Cosmos 1697 Rocket 4.3 17:03:10 10° NNW 17:06:59 18° NNE 17:07:04 18° NNE
Cosmos 1656 Rocket 3.6 17:03:56 10° NNW 17:09:37 86° WSW 17:15:13 10° SSE
SL-24 DEB 4.1 17:05:25 10° N 17:10:12 74° E 17:14:53 10° S
YAOGAN 1 2.5 17:09:19 42° ESE 17:10:27 57° ENE 17:14:43 10° N
USA 238 DEB 4.3 17:06:42 10° S 17:12:27 33° ESE 17:13:06 32° ESE
USA 238 4.3 17:06:48 10° S 17:12:33 33° ESE 17:13:10 32° ESE
MOS 1 Rocket 4.0 17:13:25 41° E 17:13:25 41° E 17:18:23 10° SSE
Cosmos 1151 Rocket 3.9 17:10:19 10° SSW 17:14:26 48° WNW 17:18:36 10° N
OPS 6432 4.5 17:14:37 10° SW 17:18:25 75° WNW 17:18:25 75° WNW
NOAA 15 4.4 17:14:22 10° SSE 17:19:37 73° ENE 17:24:54 10° NNW
Cosmos 1934 Rocket 4.0 17:13:53 10° N 17:20:12 58° ENE 17:26:24 10° SSE
Cosmos 158 Rocket 4.4 17:17:10 10° S 17:20:55 39° SE 17:20:55 39° SE
Cosmos 1515 Rocket 3.7 17:17:59 10° SSW 17:22:22 74° WNW 17:25:08 23° N
CZ-2C R/B 2.7 17:17:37 10° SSE 17:22:34 83° ENE 17:27:22 10° NNW
Cosmos 332 Rocket 4.2 17:18:46 10° NNW 17:22:42 44° NNE 17:22:42 44° NNE
Cosmos 1238 Rocket 2.8 17:19:44 10° N 17:23:35 82° E 17:28:16 10° SSE
COSMO-SKYMED 1 2.4 17:23:06 55° NNE 17:24:03 81° ESE 17:28:23 10° SSW
Cosmos 923 Rocket 4.2 17:20:13 10° S 17:24:50 48° ESE 17:24:50 48° ESE
USA 281 3.1 17:22:34 10° SSE 17:29:09 90° SW 17:35:47 10° NNW
CSL-04 Debris 4.1 17:27:30 32° SE 17:30:04 66° ENE 17:35:31 10° NNW
X-37B 3.1 17:28:12 10° SW 17:29:28 16° SSW 17:29:28 16° SSW
Cosmos 2360 Rocket 4.3 17:28:08 10° NW 17:30:51 13° N 17:32:35 12° NNE
Cosmos 2333 Rocket 4.3 17:27:48 10° WNW 17:31:23 17° NNW 17:34:05 13° NNE
Nadezhda 3 Rocket 3.9 17:25:28 10° S 17:31:49 75° E 17:38:12 10° NNE
Cosmos 2219 Rocket 4.3 17:29:47 10° WNW 17:33:20 17° NNW 17:36:03 12° N
Helios 1A Rocket 2.9 17:33:25 62° S 17:34:01 78° WSW 17:38:05 10° NNW
Meteor 2-6 Rocket 4.0 17:29:19 10° S 17:34:51 80° E 17:37:15 35° NNE
Cosmos 2228 Rocket 3.1 17:30:24 10° S 17:34:28 69° SSE 17:34:28 69° SSE
Cosmos 1821 Rocket 4.1 17:29:53 10° NNW 17:36:08 75° W 17:42:26 10° S
Meteor 1-4 Rocket 4.0 17:33:07 10° SW 17:36:26 35° WNW 17:37:26 29° NW
USA 267 3.2 17:34:11 39° ESE 17:36:56 83° SSW 17:43:31 10° WNW
H-2A R/B 1.9 17:35:18 37° SSE 17:37:25 77° ENE 17:42:31 10° NNW
Cosmos 1812 4.3 17:34:53 10° S 17:36:35 25° S 17:36:35 25° S
Meteor 1-11 Rocket 3.7 17:33:34 10° NNW 17:39:22 85° ENE 17:45:16 10° SSE
Cosmos 1939 Rocket 4.4 17:36:38 10° SSW 17:40:13 34° W 17:43:52 10° NNW
CZ-4 R/B 1.7 17:41:27 49° SSW 17:42:17 64° WSW 17:46:22 10° NNW
Cosmos 44 Rocket 4.1 17:37:21 10° NW 17:42:23 53° SW 17:45:08 26° S
CSL-04 Rocket 3.4 17:44:04 64° SE 17:44:52 78° ENE 17:50:11 10° NNW
Cosmos 1980 Rocket 4.0 17:42:37 10° NNW 17:45:17 17° N 17:45:17 17° N
Cosmos 1680 Rocket 4.3 17:46:52 10° S 17:50:18 40° S 17:50:18 40° S
Cosmos 2237 Rocket 4.1 17:48:34 10° W 17:52:56 22° NNW 17:55:40 16° N
H-2A R/B 4.5 17:52:21 10° N 17:55:23 20° WNW 17:58:27 10° WSW
Cosmos 1603 3.6 17:50:49 10° SSW 17:56:26 86° WNW 17:56:56 75° NNE
Cosmos 2369 Rocket 4.2 17:53:01 10° NW 17:57:41 27° WSW 18:02:18 10° SSW
SL-16 R/B 4.3 17:55:09 10° NNW 17:57:42 14° N 17:57:42 14° N
Cosmos 1943 3.1 17:54:07 10° SSW 17:59:49 89° WNW 17:59:58 85° NNE
Cosmos 1371 Rocket 4.2 17:58:02 10° NNW 18:03:13 68° WSW 18:03:40 64° SW
Okean-O 3.8 18:01:11 10° S 18:05:22 41° W 18:09:36 10° NNW
ISS -0.9 18:04:45 10° W 18:05:55 19° W 18:05:55 19° W
ARGOS 3.2 18:08:32 71° NW 18:08:32 71° NW 18:13:23 10° NNW
Cosmos 2056 Rocket 3.7 18:04:14 10° NNW 18:09:29 69° WSW 18:09:29 69° WSW
CENTAUR R/B 3.4 18:04:13 10° SSW 18:07:44 35° S 18:07:44 35° S
ERS-2 4.3 18:10:45 26° WNW 18:10:45 26° WNW 18:13:25 10° WSW
Cosmos 1605 Rocket 4.1 18:16:48 10° NNW 18:21:48 62° NNW 18:21:48 62° NNW
Lacrosse 5 rocket 4.0 18:25:06 10° W 18:25:53 15° WNW 18:25:53 15° WNW
Cosmos 2322 Rocket 4.5 18:38:05 10° NNW 18:39:26 13° N 18:39:26 13° N
NOSS 3-2 (A) 4.1 18:37:30 10° SW 18:41:27 47° SW 18:41:27 47° SW
USA 215 3.8 18:46:42 49° SW 18:46:42 49° SW 18:51:23 10° SW
SL-16 R/B 4.1 18:41:40 10° W 18:46:05 23° NNW 18:46:58 22° NNW
USA 238 DEB 4.4 18:56:12 10° SW 19:00:35 45° WSW 19:00:35 45° WSW
USA 238 4.4 18:56:17 10° SW 19:00:39 45° WSW 19:00:39 45° WSW
H-2A R/B 4.4 19:15:55 18° WSW 19:17:24 20° W 19:21:07 10° NW
USA 267 4.4 19:21:33 34° WSW 19:21:33 34° WSW 19:26:29 10° WNW
